Starlink 2121

operational
NORAD ID: 47399 Int'l Des: 2021-005 Owner: SPXS Country: US Constellation: starlink
LEOCIRCULAR

Über Starlink 2121

Beschreibung wird geladen...

Live-Position

3D-Globus wird geladen...

Nächste Überflüge

Höhenverlauf

Altitude vs Time

uPlot chart will show altitude changes over time

Zweizeiliger Elementsatz

1 47399U 21005BC 26063.14248005 .00001212 00000-0 53047-4 0 9990
2 47399 53.1590 62.4715 0001337 94.1431 265.9723 15.30197989282545
Epoch: 4. März 2026 • Age: 18 hours

Aktueller Status

Höhe 475.2 km
Geschwindigkeit 7.63 km/s
Subsatellitenpunkt 14.77°N, 4.45°E
Startdatum 20. Jan. 2021
Alter 5.1 years
Typ internet

Technische Details

Klassifizierung Payload
Masse 260.00 kg
Trockenmasse 248.00 kg
Gesamtmasse 260.00 kg
Länge 0.20 m
Durchmesser 2.80 m
Spannweite 9.00 m
Form Box + pan
Hersteller SPXS
Bus-Typ Starlink
Phasenstatus In Orbit
Besitzer/Staat SPXS/US

Große Konstellationen

Loading constellations...